Regional Weather Roundup
Issued by NWS

Home | Current Version | Previous Version | Text Only | Print | Product List | Glossary On
Versions: 1 2 3 4 5 6 7 8 9 10 11 12 13 14 15 16 17 18 19 20 21 22 23 24 25 26 27 28 29 30 31 32 33 34 35 36 37 38 39 40 41 42 43 44 45 46 47 48 49 50
000
ASUS43 KDMX 191206
RWRIA

WEATHER ROUNDUP FOR IOWA
NATIONAL WEATHER SERVICE DES MOINES IA
600 AM CST MON FEB 19 2018

NOTE: "FAIR" INDICATES FEW OR NO CLOUDS BELOW 12,000 FEET WITH NO
SIGNIFICANT WEATHER AND/OR OBSTRUCTIONS TO VISIBILITY.

* - THESE STATIONS ARE NOT NWS STATIONS...THUS NOT UNDER NWS
QUALITY CONTROL.  THEY ALSO DO NOT REPORT WEATHER SUCH
AS PRECIPITATION OR FOG.

IAZ001>003-012>014-020>022-031>034-043>046-191300-
   NORTHWEST IOWA

CITY           SKY/WX    TMP DP  RH WIND       PRES   REMARKS
CARROLL *      LGT SNOW  28  28 100 N18G25    29.69S WCI  16
CHEROKEE *     LGT SNOW  22  21  96 N14G21    29.77R WCI   9
DENISON *      LGT SNOW  27  27 100 N25       29.72R WCI  11
LE MARS *      LGT SNOW  19  18  93 N30G37    29.80S WCI   0
ORANGE CITY *  MIX PCPN  19  18  93 N13G21    29.80R WCI   7
SHELDON *      LGT SNOW  18  18 100 MISG      29.78R
SIOUX CITY     MIX PCPN  21  18  88 N20G32    29.79R FOG     WCI   6
6HR MIN TEMP:  21; 6HR MAX TEMP:  30; 6HR PCP: TRACE;

SPENCER        MIX PCPN  22  20  92 MISG      29.77R FOG
6HR MIN TEMP:  22; 6HR MAX TEMP:  25; 6HR PCP: TRACE;

STORM LAKE *   LGT SNOW  23  23 100 MISG      29.72S
$$

IAZ055>058-069>071-079>083-090>094-191300-
   SOUTHWEST IOWA

CITY           SKY/WX    TMP DP  RH WIND       PRES   REMARKS
ATLANTIC *     LGT RAIN  34  34 100 N15G22    29.64R WCI  24
AUDUBON *      MIX PCPN  30  28  93 N13G20    29.68R WCI  20
CLARINDA *     CLOUDY    48  48 100 CALM      29.61S
COUNCIL BLFS * LGT RAIN  30  30 100 N18G29    29.67R WCI  18
CRESTON *      FOG       45  45 100 SE10      29.62F VSB 3/4
HARLAN  *      LGT RAIN  30  30 100 N16       29.70R WCI  19
LAMONI         FOG       47  46  97 E8        29.63F VSB 3/4
6HR MIN TEMP:  45; 6HR MAX TEMP:  49; 6HR PCP:  0.02;

RED OAK *      DRIZZLE   43  43 100 NW13      29.61R
SHENANDOAH *   CLOUDY    37  37 100 NW14G23   29.63R FOG     WCI  29
$$

IAZ047>049-059>061-072>074-084-191300-
   CENTRAL IOWA

CITY           SKY/WX    TMP DP  RH WIND       PRES   REMARKS
AMES           LGT RAIN  38  36  92 N7        29.67S FOG     WCI  33
6HR MIN TEMP:  38; 6HR MAX TEMP:  41; 6HR PCP:  0.04;

ANKENY *       CLOUDY    41  41 100 SE6       29.65F FOG
BOONE *        LGT RAIN  34  32  93 N13       29.66R WCI  25
CHARITON *     CLOUDY    45  45 100 SE12      29.65F FOG
DES MOINES     DRIZZLE   45  44  97 SE10G21   29.64F
6HR MIN TEMP:  42; 6HR MAX TEMP:  46; 6HR PCP:  0.01;

GRINNELL*      DRIZZLE   42  41  94 SE13      29.69F
KNOXVILLE *    CLOUDY    46  46 100 SE10      29.65F FOG
MARSHALLTOWN   CLOUDY    38  35  89 SE10      29.66F WCI  31
6HR MIN TEMP:  34; 6HR MAX TEMP:  39;

NEWTON *       CLOUDY    41  41 100 SE13      29.67F FOG
PELLA *        DRIZZLE   44  43  97 SE9       29.68F
PERRY *        DRIZZLE   34  34  99 N14       29.66R WCI  25
$$

IAZ004>006-015-016-023>025-035-036-191300-
   NORTH CENTRAL IOWA

CITY           SKY/WX    TMP DP  RH WIND       PRES   REMARKS
ALGONA *       LGT SNOW  27 N/A N/A N20G25    29.74R WCI  13
CLARION *      CLOUDY    30  30 100 N20       29.70S FOG     WCI  18
ESTHERVILLE    LGT SNOW  21  19  92 N24G33    29.77R FOG     WCI   4
6HR MIN TEMP:  21; 6HR MAX TEMP:  23; 6HR PCP: TRACE;

FORT DODGE *   LGT SNOW  28  27  96 N12G20    29.71R FOG     WCI  18
MASON CITY     CLOUDY    30  28  92 N13       29.73R WCI  20
6HR MIN TEMP:  30; 6HR MAX TEMP:  37;

FOREST CITY *  CLOUDY    30  28  93 N16G23    29.72S WCI  19
WEBSTER CITY * LGT SNOW  30  30 100 N18       29.67R WCI  18
IOWA FALLS *   CLOUDY    38  33  82 NE6       29.70R WCI  33
$$

IAZ007>011-017>019-026>030-037>042-050>054-066-191300-
   NORTHEAST IOWA

CITY           SKY/WX    TMP DP  RH WIND       PRES   REMARKS
CEDAR RAPIDS   CLOUDY    41  37  86 S9        29.71F
6HR MIN TEMP:  37; 6HR MAX TEMP:  41;

CHARLES CITY * CLOUDY    36  36 100 E7        29.71F WCI  30
CLINTON *      FAIR      37  35  92 MISG        N/A
DECORAH *      CLOUDY    36  30  80 CALM      29.73R
DUBUQUE        FAIR      36  32  85 S9        29.75F WCI  29
6HR MIN TEMP:  35; 6HR MAX TEMP:  37;

MONTICELLO *   CLOUDY    37  34  87 E3        29.74F
OELWEIN *      CLOUDY    36  36 100 SE12      29.72S WCI  27
WATERLOO       CLOUDY    35  32  88 E6        29.70F WCI  30
6HR MIN TEMP:  34; 6HR MAX TEMP:  38;

$$

IAZ064-065-067-068-078-191300-
   EAST CENTRAL IOWA

CITY           SKY/WX    TMP DP  RH WIND       PRES   REMARKS
DAVENPORT      CLOUDY    42  38  85 SE10      29.78F
6HR MIN TEMP:  39; 6HR MAX TEMP:  43;

IOWA CITY      CLOUDY    40  34  79 SE5       29.75S
6HR MIN TEMP:  36; 6HR MAX TEMP:  40;

MT. PLEASANT * LGT RAIN  43  43 100 SE10      29.74F
MUSCATINE *    CLOUDY    41  39  93 SE6       29.77S FOG
QUAD CITIES    CLOUDY    43  40  89 S7        29.76S
6HR MIN TEMP:  38; 6HR MAX TEMP:  44;

$$

IAZ062-063-075>077-085>089-095>099-191300-
   SOUTHEAST IOWA

CITY           SKY/WX    TMP DP  RH WIND       PRES   REMARKS
BURLINGTON     LGT RAIN  45  44  97 SE9       29.76F FOG
6HR MIN TEMP:  44; 6HR MAX TEMP:  46; 6HR PCP:  0.15;

FAIRFIELD *    CLOUDY    46  46 100 SE10      29.71F FOG
FORT MADISON * CLOUDY    45  45 100 SE8       29.76F FOG
KEOKUK *       CLOUDY    45  43  93 E7        29.74F FOG
OSKALOOSA *    LGT RAIN  41  40  97 SE9       29.69F VSB 1/2
OTTUMWA        CLOUDY    46  45  96 SE12      29.69F FOG
6HR MIN TEMP:  45; 6HR MAX TEMP:  48; 6HR PCP:  0.03;

WASHINGTON *   FOG       43  43 100 SE10      29.74F VSB 3/4
$$

ABBREVIATIONS USED IN REMARKS
   TC - TEMPERATURES IN CELSIUS
  WCI - WIND CHILL INDEX
   HX - HEAT INDEX
  VSB - VISIBILITY
$$





USA.gov is the U.S. government's official web portal to all federal, state and local government web resources and services.